Location: Boteburen
(53.3500°N, 5.8500°E)
Time: 05:29:38
(UTC+00:00)

Daily predictions for brighter satellites

Satellite Brightness Start Highest point End
(mag) Time Altitude Azimuth Time Altitude Azimuth Time Altitude Azimuth
Cosmos 2242 Rocket 3.8 00:02:46 28° SSW 00:05:06 65° WNW 00:09:41 10° N
Cosmos 1703 Rocket 4.1 00:03:20 25° SW 00:05:40 50° WNW 00:10:02 10° N
Cosmos 1980 Rocket 3.9 00:00:55 10° W 00:05:53 30° NW 00:10:54 10° NNE
Cosmos 1818 3.5 00:03:23 10° NW 00:08:51 70° SW 00:12:49 19° SSE
Cosmos 2322 Rocket 2.2 00:05:15 23° SW 00:08:53 84° WNW 00:14:33 10° NNE
Okean 1-7 3.8 00:06:47 23° SW 00:09:08 44° WNW 00:13:22 10° N
Cosmos 1242 Rocket 2.8 00:05:47 10° N 00:09:23 63° ENE 00:11:04 28° SSE
USA 267 4.4 00:10:32 20° SW 00:12:02 21° SW 00:16:50 10° WNW
ATLAS CENTAUR R/B 1.7 00:07:13 10° NW 00:12:10 87° SW 00:16:20 14° SE
ALOS 2 4.4 00:11:03 15° WSW 00:12:48 19° W 00:15:57 10° NW
Cosmos 2151 Rocket 3.8 00:08:48 10° N 00:13:12 64° ENE 00:15:52 23° SSE
Cosmos 1782 Rocket 4.5 00:12:33 10° NNW 00:16:31 35° W 00:18:18 25° SW
ERS-2 4.0 00:15:33 10° N 00:18:26 23° WNW 00:20:41 13° WSW
Okean 2 Rocket 3.1 00:14:28 10° N 00:19:00 82° ENE 00:21:37 25° SSE
SL-08 R/B 4.5 00:15:32 10° N 00:21:48 89° E 00:26:14 21° S
Cosmos 372 Rocket 4.1 00:19:41 26° S 00:22:26 62° ESE 00:27:32 10° NNE
RESURS DK-1 4.2 00:19:16 10° W 00:22:48 27° NW 00:26:22 10° NNE
ADEOS Rocket 3.8 00:20:34 21° SW 00:23:24 32° W 00:28:33 10° NNW
GP-B 4.5 00:20:01 10° NNE 00:24:02 32° E 00:27:22 14° SE
Cosmos 1953 3.4 00:20:28 10° N 00:24:19 41° ENE 00:27:20 15° SE
Cosmos 1844 Rocket 3.4 00:19:41 10° NW 00:24:47 37° WSW 00:27:19 24° SSW
Cosmos 1844 4.3 00:20:32 10° NW 00:25:59 43° WSW 00:28:57 24° SSW
NOSS 2-2 (E) 4.4 00:21:50 10° NW 00:26:27 70° NE 00:32:57 10° SE
Cosmos 1378 Rocket 4.4 00:25:44 21° SSE 00:28:17 42° E 00:32:28 10° NNE
Cosmos 2237 4.4 00:26:11 19° SW 00:30:20 68° NW 00:36:05 10° NNE
Meteor 1-21 4.3 00:26:51 24° S 00:30:30 81° E 00:36:21 10° NNE
Cosmos 1758 3.3 00:27:39 10° NNW 00:31:37 70° W 00:33:27 30° S
NOSS 3-1 (A) 4.0 00:25:04 10° NW 00:32:11 86° NE 00:40:44 10° SE
Cosmos 1937 Rocket 3.5 00:29:41 25° SSW 00:32:51 85° WNW 00:38:11 10° NNE
Sich 1 Rocket 3.7 00:29:17 10° NNW 00:33:38 60° W 00:35:48 28° SSW
Resurs 1-4 Rocket 3.4 00:30:39 10° NNE 00:35:20 31° E 00:39:18 13° SSE
Cosmos 1470 3.8 00:32:22 10° NNW 00:35:52 32° W 00:37:14 25° SW
Cosmos 1674 2.6 00:36:19 31° S 00:38:00 75° E 00:41:45 10° NNE
CZ-4C R/B 2.9 00:31:57 10° NW 00:38:53 85° SW 00:47:13 10° SE
Okean 2 3.3 00:39:06 29° S 00:41:09 90° E 00:45:16 10° NNE
Cosmos 2219 Rocket 2.4 00:39:12 23° S 00:42:35 58° ESE 00:48:04 10° NE
Cosmos 1707 3.0 00:40:54 28° SW 00:42:43 59° WNW 00:46:35 10° N
NOSS 3-1 (C) 4.0 00:36:29 10° NW 00:43:37 64° SW 00:52:07 10° SSE
SL-16 R/B 3.1 00:38:30 11° WSW 00:43:39 44° NW 00:49:05 10° NNE
Cosmos 1437 Rocket 3.0 00:40:16 10° N 00:44:04 64° ENE 00:46:36 19° SSE
Cosmos 1726 4.4 00:42:29 10° NW 00:44:10 13° W 00:45:19 11° WSW
Cosmos 1300 Rocket 4.5 00:40:24 10° NNW 00:44:19 34° W 00:46:12 23° SW
ATLAS 3B R/B 4.0 00:39:52 10° WNW 00:45:37 25° WSW 00:48:51 19° SW
ASTEX 1 3.9 00:41:25 10° N 00:46:08 49° WNW 00:49:02 22° SW
COSMOS 2428 3.3 00:44:03 21° S 00:47:38 47° ESE 00:53:03 10° NE
SJ 16-02 4.2 00:47:50 10° NW 00:49:05 11° NW 00:50:20 10° NNW
Cosmos 1709 Rocket 4.3 00:42:56 10° N 00:49:06 66° ENE 00:55:03 11° SSE
NOSS 2-1 (E) 3.9 00:48:24 14° WSW 00:50:51 42° NNW 00:54:15 10° NE
MOS 1 Rocket 4.5 00:48:07 10° SE 00:52:03 36° ENE 00:55:59 10° N
Cosmos 1898 Rocket 4.2 00:48:35 17° SW 00:52:32 50° WNW 00:57:44 10° NNE
Cosmos 839 Rocket 4.2 00:48:02 10° NW 00:54:17 84° NE 01:01:22 10° SE
MOZ.5/SAFIR/RUBIN 5/SL-8 3.8 00:54:00 22° S 00:57:00 66° WSW 01:01:45 10° NNW
Cosmos 1626 2.0 00:55:39 28° SSW 00:57:26 81° W 01:01:09 10° N
S3M 4.1 00:54:26 19° S 00:59:14 80° E 01:05:38 10° NNE
NOSS 2-2 (D) 4.1 00:56:36 10° NW 01:01:15 88° NE 01:07:47 10° SE
Cosmos 2237 Rocket 3.8 00:57:20 11° SSE 01:01:46 26° ESE 01:06:23 10° NE
ADEOS II 3.5 00:59:11 10° NNE 01:03:48 30° E 01:08:23 10° SSE
KORONAS-FOTON 4.1 01:03:59 25° SW 01:05:56 52° WNW 01:09:40 10° N
Cosmos 2333 4.2 01:01:59 20° SW 01:05:59 80° WNW 01:11:41 10° NNE
Cosmos 1553 Rocket 4.1 01:02:58 20° SSW 01:07:15 64° WNW 01:13:25 10° N
Cosmos 1300 2.8 01:05:02 10° N 01:08:49 71° ENE 01:11:51 15° SSE
Cosmos 405 Rocket 2.5 01:10:48 24° SSW 01:12:55 90° ESE 01:16:41 10° NNE
Cosmos 2221 Rocket 4.0 01:10:51 21° SW 01:13:34 52° WNW 01:17:55 10° N
Okean 1 Rocket 3.1 01:09:23 10° NNW 01:13:45 65° W 01:16:47 19° S
IDEFIX/ARIANE 42P 4.0 01:10:50 10° NNE 01:15:31 31° E 01:20:10 10° SSE
USA 215 3.7 01:09:45 10° ENE 01:16:14 66° N 01:22:43 10° W
Cosmos 1238 Rocket 3.5 01:13:50 10° NNW 01:16:23 24° W 01:17:10 21° WSW
ATLAS 5 CENTAUR R/B 3.8 01:04:13 10° NW 01:16:34 41° WSW 01:19:49 17° S
Cosmos 2360 Rocket 2.9 01:13:37 13° WSW 01:18:29 47° NW 01:23:57 10° NNE
Cosmos 1908 4.1 01:15:24 10° NNW 01:18:49 32° W 01:20:34 21° SW
Cosmos 1900 4.5 01:15:01 18° SW 01:18:53 77° NW 01:24:04 10° NE
Cosmos 1461 3.0 01:15:02 10° NW 01:19:03 51° SW 01:23:10 10° SSE
Meteor 2-10 Rocket 3.8 01:15:17 10° NNW 01:21:08 82° ENE 01:26:45 10° SSE
CZ-2D R/B 2.3 01:20:39 10° NNE 01:26:07 72° ESE 01:30:34 15° S
Cosmos 2278 Rocket 2.2 01:20:54 10° NW 01:26:35 73° WSW 01:32:14 10° SSE
Cosmos 1048 Rocket 4.4 01:27:33 10° NW 01:32:28 43° WSW 01:36:29 14° S
Cosmos 1867 3.9 01:30:59 17° SSW 01:35:06 60° SE 01:40:31 10° NE
Gblst 52 Del rocket 4.3 01:30:00 12° WSW 01:35:16 59° SSE 01:40:40 10° E
SME Rocket 3.8 01:32:58 19° SSW 01:35:16 37° W 01:39:35 10° NNW
Cosmos 2333 Rocket 2.7 01:33:18 14° SW 01:38:07 55° NW 01:43:43 10° NNE
Thor Agena Rocket 4.0 01:36:41 10° N 01:41:47 52° WNW 01:46:03 15° SW
Cosmos 1125 Rocket 3.6 01:37:42 15° SSW 01:41:56 72° ESE 01:47:08 10° NNE
Cosmos 1943 Rocket 3.0 01:37:55 10° NNW 01:43:32 56° NE 01:49:07 10° SE
SL-16 R/B 2.6 01:38:03 10° S 01:44:10 63° WSW 01:50:23 10° NNW
YAOGAN 11 4.1 01:39:55 11° S 01:44:11 68° WSW 01:48:40 10° NNW
SL-16 R/B 4.2 01:40:50 10° SE 01:44:50 20° E 01:48:51 10° NE
Cosmos 2369 Rocket 4.2 01:40:01 10° NNW 01:45:00 32° NE 01:49:59 10° ESE
Cosmos 2322 4.0 01:40:26 14° SW 01:45:17 63° NW 01:51:00 10° NNE
EO 1 Del DPAF 4.0 01:41:57 10° NNE 01:45:19 41° E 01:48:38 10° S
Cosmos 1674 Rocket 4.4 01:43:30 16° SW 01:46:36 37° WNW 01:50:38 10° N
Cosmos 2298 Rocket 4.1 01:45:28 15° SSW 01:49:55 83° ESE 01:55:16 10° NNE
ATLAS CENTAUR R/B 3.2 01:46:59 10° WNW 01:50:21 19° WSW 01:52:17 15° SW
USA 290 2.5 01:48:51 18° SW 01:51:05 57° WNW 01:54:17 10° NNE
Cosmos 1980 4.1 01:46:55 13° S 01:51:56 58° ESE 01:57:29 10° NE
Cosmos 2322 Rocket 4.0 01:49:10 10° W 01:53:47 25° NW 01:58:24 10° NNE
AQUA 3.9 01:50:17 10° NNE 01:55:05 84° ESE 01:59:34 12° SSW
USA 229 DEB 4.1 01:49:27 10° NW 01:56:28 52° SW 02:03:57 10° SSE
USA 229 4.1 01:49:32 10° NW 01:56:34 52° SW 02:04:02 10° SSE
Cosmos 1455 Rocket 3.2 01:53:51 10° NNW 01:58:17 64° W 02:02:41 10° S
SL-14 R/B 3.9 01:56:23 15° SW 01:59:20 42° WNW 02:03:04 10° N
ATLAS 2AS CENTAUR R/B 4.2 01:52:13 10° W 01:59:20 40° NNW 02:06:06 10° ENE
Cosmos 1953 3.7 01:57:13 10° NW 02:00:26 23° W 02:02:56 13° SW
GP-B 4.0 01:57:19 10° NNW 02:01:21 34° WNW 02:04:48 13° SW
MSX 4.3 01:59:17 10° NNE 02:04:59 59° ESE 02:10:40 10° S
Helios 1A 3.1 02:03:35 10° S 02:07:44 61° WSW 02:11:56 10° NNW
NPP 3.8 02:02:33 10° NNE 02:07:56 68° WNW 02:13:05 11° SSW
Cosmos 371 Rocket 3.3 02:04:37 13° SSW 02:09:02 81° WNW 02:13:56 10° NNE
UNK 4.3 02:07:23 10° SSW 02:11:36 38° W 02:15:55 10° NNW
CZ-4 R/B 4.3 02:07:07 10° N 02:11:39 48° WNW 02:15:53 11° SW
Meteor 1-28 Rocket 3.5 02:11:08 10° S 02:14:45 46° W 02:18:24 10° NNW
Resurs 1-4 Rocket 2.6 02:10:18 10° N 02:15:23 50° WNW 02:20:23 10° SW
Cosmos 1975 Rocket 3.2 02:11:29 11° SSW 02:15:44 68° WNW 02:20:11 10° N
Cosmos 1271 Rocket 3.8 02:14:25 10° N 02:18:04 47° ENE 02:21:46 10° SSE
SAR-Lupe-2 4.0 02:18:16 10° N 02:21:46 48° WNW 02:25:09 10° SW
Helios 1B rocket 3.9 02:19:29 10° NNE 02:23:12 33° E 02:26:54 10° SSE
Cosmos 2074 Rocket 4.0 02:17:07 10° NNW 02:23:24 74° W 02:29:40 10° S
Cosmos 2315 Rocket 4.5 02:18:05 10° SSW 02:24:11 50° WNW 02:30:24 10° N
Cosmos 2228 4.1 02:22:03 10° N 02:26:21 50° ENE 02:30:36 10° SSE
Cosmos 2219 Rocket 3.3 02:21:42 10° WSW 02:26:50 36° NW 02:32:01 10° NNE
CZ-4C R/B 3.8 02:20:55 10° WNW 02:27:03 29° WSW 02:33:58 10° S
SeaSat 1 4.5 02:24:55 10° NE 02:28:43 22° ESE 02:32:30 10° SSE
NOSS 0 Rocket 4.1 02:22:51 10° SW 02:29:07 76° NW 02:35:25 10° NNE
MOS 1 Rocket 4.0 02:26:33 10° SSW 02:30:22 30° W 02:34:12 10° NNW
Cosmos 2184 Rocket 4.1 02:25:00 10° NNW 02:31:16 68° W 02:37:26 10° S
COSMOS 2428 3.5 02:26:34 10° WSW 02:31:59 43° NW 02:37:25 10° NNE
CZ-2C R/B 4.2 02:27:41 10° NNE 02:32:17 31° E 02:36:48 10° SSE
Cosmos 304 Rocket 3.9 02:30:44 10° SSW 02:35:33 75° WNW 02:40:25 10° NNE
Cosmos 1269 Rocket 4.2 02:30:37 10° NNW 02:35:47 54° WSW 02:40:54 10° S
Cosmos 1455 2.3 02:36:28 10° NNW 02:40:07 54° W 02:43:44 10° S
Cosmos 1544 Rocket 4.1 02:39:27 10° NNW 02:43:40 43° W 02:47:51 10° SSW
ADEOS II 2.5 02:38:38 10° N 02:43:45 52° WNW 02:48:50 10° SW
Cosmos 2237 Rocket 2.4 02:39:40 10° SW 02:45:21 71° NW 02:51:05 10° NNE
BREEZE-M DEB (TANK) 3.8 02:36:40 10° WSW 02:46:10 56° S 02:49:23 10° E
